CW7529 Weather Reports


Display with metric or nautical units.
time (UTC)temp
F
wind
direction
speed
MPH
gust
MPH
rain 1hr
in
rain 24hr
in
rain mn
in
humidity
%
barometer
mb
20171118042238 48 23 2.0 5.0 0.00 0.00 0.00 98 1003.5
20171118041732 48 0 2.0 4.0 0.00 0.00 0.00 98 1003.5
20171118041227 48 68 0.0 3.0 0.00 0.00 0.00 98 1003.9
20171118040719 48 45 1.0 4.0 0.00 0.00 0.00 98 1003.5
20171118040215 48 45 2.0 4.0 0.00 0.00 0.00 98 1003.5
20171118035708 48 23 1.0 3.0 0.00 0.00 0.00 98 1003.5
20171118035203 49 45 2.0 3.0 0.00 0.00 0.00 98 1003.5
20171118034656 49 0 2.0 3.0 0.00 0.00 0.00 98 1003.9
20171118034151 49 23 2.0 3.0 0.00 0.00 0.00 98 1003.5
20171118033646 49 23 2.0 3.0 0.00 0.00 0.00 98 1003.5
20171118033639 49 23 1.0 3.0 0.00 0.00 0.00 98 1003.5
20171118032633 49 45 2.0 3.0 0.00 0.00 0.00 98 1003.1
20171118032125 49 45 2.0 3.0 0.00 0.00 0.00 98 1003.1
20171118031621 49 45 1.0 3.0 0.00 0.00 0.00 98 1003.1
20171118031113 49 45 0.0 2.0 0.00 0.00 0.00 98 1003.5
20171118030610 49 23 2.0 3.0 0.00 0.00 0.00 98 1003.5
20171118030045 49 315 2.0 3.0 0.00 0.00 0.00 98 1003.5
20171118025537 49 68 2.0 4.0 0.00 0.00 0.00 98 1003.5
20171118025032 49 23 1.0 3.0 0.00 0.00 0.00 98 1003.5
20171118024525 49 45 2.0 3.0 0.00 0.00 0.00 98 1003.5
20171118024020 49 23 2.0 4.0 0.00 0.00 0.00 98 1003.9
20171118023455 49 23 2.0 5.0 0.00 0.00 0.00 98 1003.9
20171118022955 49 0 4.0 5.0 0.00 0.00 0.00 96 1003.9
20171118022443 49 23 4.0 6.0 0.00 0.00 0.00 96 1003.9
20171118021939 49 0 3.0 6.0 0.00 0.00 0.00 96 1003.9
20171118021433 49 45 2.0 4.0 0.00 0.00 0.00 96 1003.9
20171118020927 49 315 3.0 4.0 0.00 0.00 0.00 96 1003.9
20171118020421 49 0 3.0 4.0 0.00 0.00 0.00 96 1003.9
20171118015915 50 45 2.0 4.0 0.00 0.00 0.00 96 1003.9
20171118015407 50 315 2.0 5.0 0.00 0.00 0.00 96 1003.9
20171118014903 50 23 2.0 5.0 0.00 0.00 0.00 96 1003.5
20171118014356 50 23 2.0 2.0 0.00 0.00 0.00 96 1003.5
20171118013852 50 0 1.0 2.0 0.00 0.00 0.00 96 1003.5
20171118013344 50 23 0.0 0.0 0.00 0.00 0.00 96 1003.5
20171118012820 50 45 0.0 1.0 0.00 0.00 0.00 96 1003.5
20171118012320 50 23 0.0 1.0 0.00 0.00 0.00 96 1003.1
20171118011807 50 23 0.0 2.0 0.00 0.00 0.00 96 1003.1
20171118011302 50 45 0.0 2.0 0.00 0.00 0.00 96 1003.1
20171118010755 50 68 0.0 1.0 0.00 0.00 0.00 96 1003.1
20171118010251 50 68 0.0 1.0 0.00 0.00 0.00 96 1003.1
20171118005745 50 113 0.0 3.0 0.00 0.00 0.00 96 1003.1
20171118005221 50 45 2.0 3.0 0.00 0.00 0.00 96 1003.1
20171118004713 50 45 1.0 3.0 0.00 0.00 0.00 95 1003.1
20171118004207 50 90 1.0 2.0 0.00 0.00 0.00 95 1003.1
20171118003703 51 45 0.0 1.0 0.00 0.00 0.00 95 1003.1
20171118003157 51 113 0.0 0.0 0.00 0.00 0.00 95 1003.5
20171118002649 51 113 0.0 0.0 0.00 0.00 0.00 95 1003.1
20171118002145 51 90 0.0 1.0 0.00 0.00 0.00 95 1003.5
20171118001639 51 180 0.0 1.0 0.00 0.00 0.00 93 1003.1
20171118001131 51 113 0.0 0.0 0.00 0.00 0.00 93 1003.1
20171118000626 51 135 0.0 0.0 0.00 0.00 0.00 93 1003.1
20171118000103 51 113 0.0 0.0 0.00 0.00 0.00 93 1003.1
20171117235556 51 113 0.0 1.0 0.00 0.00 0.00 93 1003.1
20171117235049 51 135 0.0 1.0 0.00 0.00 0.00 93 1003.1
20171117234543 51 113 0.0 1.0 0.00 0.00 0.00 93 1003.1
20171117234038 51 113 0.0 1.0 0.00 0.00 0.00 93 1003.1
20171117233533 51 113 0.0 2.0 0.00 0.00 0.00 93 1003.1
20171117233025 51 90 1.0 3.0 0.00 0.00 0.00 93 1003.1
20171117232520 51 135 1.0 4.0 0.00 0.00 0.00 93 1003.1
20171117232013 51 113 2.0 4.0 0.00 0.00 0.00 93 1002.8
20171117231509 51 135 1.0 3.0 0.00 0.00 0.00 93 1003.1
20171117230943 51 113 1.0 2.0 0.00 0.00 0.00 93 1003.1
20171117230437 51 113 0.0 2.0 0.00 0.00 0.00 93 1003.1
20171117225932 51 158 0.0 0.0 0.00 0.00 0.00 91 1002.8
20171117225425 51 135 0.0 2.0 0.00 0.00 0.00 91 1003.1
20171117224921 51 113 0.0 2.0 0.00 0.00 0.00 91 1002.8
20171117224414 51 135 0.0 0.0 0.00 0.00 0.00 91 1003.1
20171117223909 51 113 0.0 0.0 0.00 0.00 0.00 91 1002.8
20171117223403 51 248 0.0 0.0 0.00 0.00 0.00 91 1003.1
20171117222855 51 338 0.0 0.0 0.00 0.00 0.00 91 1002.8
20171117222351 51 135 0.0 0.0 0.00 0.00 0.00 91 1002.8
20171117221827 51 180 0.0 0.0 0.00 0.00 0.00 91 1003.1
20171117221244 51 113 0.0 1.0 0.00 0.00 0.00 91 1003.1
20171117220701 51 135 0.0 2.0 0.00 0.00 0.00 91 1003.1
20171117220157 51 113 1.0 2.0 0.00 0.00 0.00 91 1003.1
20171117215655 51 113 1.0 3.0 0.00 0.00 0.00 91 1003.1
20171117215143 51 135 2.0 3.0 0.00 0.00 0.00 91 1003.1
20171117214638 51 113 1.0 2.0 0.00 0.00 0.00 91 1003.1
20171117214131 51 113 0.0 2.0 0.00 0.00 0.00 91 1003.1
20171117213626 51 90 1.0 2.0 0.00 0.00 0.00 91 1003.1
20171117213121 51 113 0.0 3.0 0.00 0.00 0.00 91 1003.1
20171117212612 51 135 1.0 3.0 0.00 0.00 0.00 91 1003.5
20171117212109 51 180 1.0 3.0 0.00 0.00 0.00 91 1003.1
20171117211545 51 180 1.0 3.0 0.00 0.00 0.00 91 1003.5
20171117211003 51 203 0.0 2.0 0.00 0.00 0.00 91 1003.5
20171117210438 51 180 1.0 2.0 0.00 0.00 0.00 91 1003.1
20171117205932 51 225 1.0 3.0 0.00 0.00 0.00 91 1003.1
20171117205427 51 180 1.0 3.0 0.00 0.00 0.00 91 1003.5
20171117204920 51 135 1.0 4.0 0.00 0.00 0.00 91 1003.1
20171117204414 51 135 1.0 4.0 0.00 0.00 0.00 91 1003.1
20171117203909 51 180 2.0 4.0 0.00 0.00 0.00 91 1003.1
20171117203403 50 180 1.0 3.0 0.00 0.00 0.00 91 1003.1
20171117202855 50 180 1.0 4.0 0.00 0.00 0.00 91 1003.5
20171117202351 50 203 1.0 4.0 0.00 0.00 0.00 91 1003.1
20171117201828 50 180 1.0 5.0 0.00 0.00 0.00 91 1003.1
20171117201318 50 135 3.0 6.0 0.00 0.00 0.00 91 1003.1
20171117200815 50 180 4.0 6.0 0.00 0.00 0.00 91 1003.1
20171117200308 50 203 2.0 5.0 0.00 0.00 0.00 91 1003.1
20171117195804 50 203 2.0 5.0 0.00 0.00 0.00 91 1003.5
20171117195238 50 135 3.0 6.0 0.00 0.00 0.00 91 1003.5
20171117194733 49 158 3.0 6.0 0.00 0.00 0.00 91 1003.5
20171117194207 49 158 3.0 5.0 0.00 0.00 0.00 91 1003.5
20171117193703 49 113 3.0 5.0 0.00 0.00 0.00 91 1003.9
20171117193136 49 203 2.0 6.0 0.00 0.00 0.00 91 1003.9
20171117192633 49 158 3.0 7.0 0.00 0.00 0.00 91 1003.9
20171117192107 49 158 3.0 7.0 0.00 0.00 0.00 93 1004.3
20171117191603 48 203 3.0 5.0 0.00 0.00 0.00 93 1004.3
20171117191037 48 180 1.0 5.0 0.00 0.00 0.00 93 1004.6
20171117190532 47 180 2.0 5.0 0.00 0.00 0.00 93 1004.6
20171117190025 47 113 2.0 5.0 0.00 0.00 0.00 93 1004.6
20171117185518 47 158 2.0 5.0 0.00 0.00 0.00 93 1004.6
20171117185013 47 113 2.0 5.0 0.00 0.00 0.00 91 1005.3
20171117184509 47 158 2.0 5.0 0.00 0.00 0.00 91 1005.3
20171117184000 46 113 1.0 6.0 0.00 0.00 0.00 91 1005.3
20171117183456 46 203 3.0 6.0 0.00 0.00 0.00 91 1005.6
20171117182949 46 180 2.0 4.0 0.00 0.00 0.00 91 1005.6
20171117182442 46 270 1.0 6.0 0.00 0.00 0.00 91 1005.6
20171117181937 46 158 4.0 6.0 0.00 0.00 0.00 91 1005.9
20171117181431 46 158 2.0 6.0 0.00 0.00 0.00 91 1005.9
20171117180924 46 113 3.0 6.0 0.00 0.00 0.00 91 1005.9
20171117180420 46 158 3.0 8.0 0.00 0.00 0.00 91 1006.3
20171117175837 46 180 4.0 8.0 0.00 0.00 0.00 91 1006.3
20171117175812 46 180 3.0 5.0 0.00 0.00 0.00 90 1006.6
20171117174806 46 158 3.0 7.0 0.00 0.00 0.00 90 1006.6
20171117174802 46 180 4.0 7.0 0.00 0.00 0.00 90 1007.0
20171117173753 46 135 4.0 7.0 0.00 0.00 0.00 88 1007.0
20171117173250 46 203 3.0 7.0 0.00 0.00 0.00 88 1007.3
20171117172741 46 158 3.0 6.0 0.00 0.00 0.00 88 1007.3
20171117172737 46 203 2.0 6.0 0.00 0.00 0.00 88 1007.3
20171117171713 46 158 3.0 6.0 0.00 0.00 0.00 88 1007.7
20171117171147 46 158 3.0 7.0 0.00 0.00 0.00 88 1007.7
20171117170642 46 158 4.0 7.0 0.00 0.00 0.00 88 1007.7
20171117170135 46 158 3.0 7.0 0.00 0.00 0.00 88 1008.1
20171117165632 45 113 4.0 7.0 0.00 0.00 0.00 88 1008.1
20171117165626 45 135 2.0 8.0 0.00 0.00 0.00 88 1008.1
20171117165119 45 158 3.0 8.0 0.00 0.00 0.00 86 1008.4
20171117164111 45 135 2.0 5.0 0.00 0.00 0.00 86 1008.4
20171117163607 45 135 2.0 5.0 0.00 0.00 0.00 86 1008.8
20171117163059 45 203 2.0 5.0 0.00 0.00 0.00 86 1008.8
20171117162554 45 113 1.0 6.0 0.00 0.00 0.00 85 1008.8
20171117162530 45 90 3.0 6.0 0.00 0.00 0.00 85 1009.1
20171117161523 45 158 2.0 7.0 0.00 0.00 0.00 83 1009.1
20171117161518 45 135 5.0 7.0 0.00 0.00 0.00 83 1009.1
20171117160512 45 158 1.0 7.0 0.00 0.00 0.00 83 1009.1
20171117160005 45 113 4.0 7.0 0.00 0.00 0.00 83 1009.4
20171117155459 45 225 1.0 3.0 0.00 0.00 0.00 81 1009.4
20171117154954 45 180 1.0 3.0 0.00 0.00 0.00 81 1009.8
20171117154430 45 113 1.0 4.0 0.00 0.00 0.00 81 1009.8
20171117153846 45 113 1.0 4.0 0.00 0.00 0.00 81 1009.8
20171117153340 45 158 2.0 6.0 0.00 0.00 0.00 81 1009.8
20171117153335 45 158 4.0 8.0 0.00 0.00 0.00 81 1009.8
20171117152329 45 113 4.0 8.0 0.00 0.00 0.00 81 1009.8
20171117152324 45 180 2.0 7.0 0.00 0.00 0.00 81 1009.4
20171117151317 45 225 2.0 5.0 0.00 0.00 0.00 81 1009.8
20171117150811 45 203 3.0 5.0 0.00 0.00 0.00 81 1009.8
20171117150304 45 158 4.0 8.0 0.00 0.00 0.00 81 1009.8
20171117145801 45 113 4.0 10.0 0.00 0.00 0.00 81 1009.8
20171117145254 45 158 5.0 10.0 0.00 0.00 0.00 81 1009.8
20171117144728 45 113 4.0 10.0 0.00 0.00 0.00 81 1010.1
20171117144223 45 113 4.0 10.0 0.00 0.00 0.00 81 1010.1
20171117144219 45 180 6.0 9.0 0.00 0.00 0.00 81 1010.1
20171117143210 45 158 4.0 11.0 0.00 0.00 0.00 81 1010.1
20171117142706 45 158 6.0 11.0 0.00 0.00 0.00 81 1010.1
20171117142158 45 90 4.0 7.0 0.00 0.00 0.00 81 1010.1
20171117141654 45 135 3.0 7.0 0.00 0.00 0.00 81 1010.1
20171117141146 45 90 3.0 8.0 0.00 0.00 0.00 81 1010.5
20171117140640 45 158 4.0 8.0 0.00 0.00 0.00 80 1010.5
20171117140135 44 180 4.0 7.0 0.00 0.00 0.00 80 1010.5
20171117135628 44 158 4.0 6.0 0.00 0.00 0.00 80 1010.8
20171117135123 44 180 2.0 10.0 0.00 0.00 0.00 79 1010.8
20171117135117 44 135 3.0 10.0 0.00 0.00 0.00 79 1010.8
20171117134112 44 158 3.0 4.0 0.00 0.00 0.00 78 1010.8
20171117133603 44 135 2.0 4.0 0.00 0.00 0.00 78 1010.8
20171117133059 44 180 2.0 4.0 0.00 0.00 0.00 78 1011.1
20171117132536 44 135 2.0 4.0 0.00 0.00 0.00 78 1010.8
20171117132028 44 158 2.0 3.0 0.00 0.00 0.00 76 1011.1
20171117131524 44 68 1.0 5.0 0.00 0.00 0.00 76 1011.1
20171117131016 44 225 3.0 5.0 0.00 0.00 0.00 76 1011.1
20171117130512 44 158 1.0 5.0 0.00 0.00 0.00 76 1011.6
20171117130506 44 158 2.0 5.0 0.00 0.00 0.00 76 1011.6
20171117125500 44 158 2.0 5.0 0.00 0.00 0.00 75 1011.6
20171117124952 44 113 2.0 6.0 0.00 0.00 0.00 75 1011.6
20171117124447 44 90 2.0 6.0 0.00 0.00 0.00 75 1011.9
20171117123939 44 135 2.0 6.0 0.00 0.00 0.00 75 1011.6
20171117123434 44 113 2.0 6.0 0.00 0.00 0.00 75 1011.9
20171117122928 43 180 2.0 6.0 0.00 0.00 0.00 75 1011.9
20171117122423 43 113 2.0 5.0 0.00 0.00 0.00 75 1011.9
20171117121917 43 113 2.0 4.0 0.00 0.00 0.00 74 1012.2
20171117121411 43 113 0.0 4.0 0.00 0.00 0.00 74 1012.2
20171117120903 43 135 2.0 4.0 0.00 0.00 0.00 73 1012.2
20171117120358 43 158 1.0 4.0 0.00 0.00 0.00 73 1012.2
20171117115852 43 315 1.0 5.0 0.00 0.00 0.00 73 1011.9
20171117115347 43 158 2.0 7.0 0.00 0.00 0.00 73 1012.2
20171117114840 43 158 4.0 7.0 0.00 0.00 0.00 73 1011.9
20171117114334 43 158 3.0 7.0 0.00 0.00 0.00 73 1012.6
20171117113828 43 90 2.0 7.0 0.00 0.00 0.00 71 1012.2
20171117113322 43 158 2.0 6.0 0.00 0.00 0.00 73 1012.6
20171117112816 43 90 2.0 7.0 0.00 0.00 0.00 71 1012.6
20171117112311 43 158 3.0 7.0 0.00 0.00 0.00 71 1012.2
20171117111803 43 158 3.0 8.0 0.00 0.00 0.00 70 1012.2
20171117111257 43 113 3.0 8.0 0.00 0.00 0.00 70 1012.2
20171117110753 43 135 2.0 8.0 0.00 0.00 0.00 70 1012.6
20171117110245 43 135 4.0 8.0 0.00 0.00 0.00 70 1012.9
20171117105741 43 180 4.0 7.0 0.00 0.00 0.00 70 1012.9
20171117105232 43 90 2.0 7.0 0.00 0.00 0.00 70 1013.3
20171117104728 43 45 4.0 7.0 0.00 0.00 0.00 70 1012.9
20171117104222 43 180 3.0 5.0 0.00 0.00 0.00 70 1013.3
20171117103715 43 90 3.0 6.0 0.00 0.00 0.00 70 1013.3
20171117103212 43 113 3.0 11.0 0.00 0.00 0.00 70 1013.3
20171117102704 43 113 5.0 11.0 0.00 0.00 0.00 70 1013.3
20171117102158 42 203 4.0 7.0 0.00 0.00 0.00 70 1013.3
20171117101650 42 135 3.0 6.0 0.00 0.00 0.00 70 1013.3
20171117101146 42 180 3.0 8.0 0.00 0.00 0.00 70 1013.3
20171117100640 42 180 4.0 8.0 0.00 0.00 0.00 70 1013.3
20171117100134 41 90 1.0 3.0 0.00 0.00 0.00 71 1013.3
20171117095608 41 113 2.0 4.0 0.00 0.00 0.00 71 1013.3
20171117095102 41 158 2.0 4.0 0.00 0.00 0.00 71 1013.3
20171117094557 40 113 1.0 3.0 0.00 0.00 0.00 71 1013.3
20171117094051 40 113 1.0 6.0 0.00 0.00 0.00 71 1013.6
20171117093544 40 135 2.0 6.0 0.00 0.00 0.00 71 1013.6
20171117093039 40 158 3.0 5.0 0.00 0.00 0.00 71 1013.9
20171117092533 40 135 2.0 4.0 0.00 0.00 0.00 71 1013.9
20171117092027 40 113 2.0 3.0 0.00 0.00 0.00 71 1014.3
20171117091520 40 23 2.0 4.0 0.00 0.00 0.00 71 1015.0
20171117091016 40 45 2.0 4.0 0.00 0.00 0.00 71 1015.0
20171117090450 40 135 2.0 4.0 0.00 0.00 0.00 73 1014.6
20171117085946 40 113 2.0 6.0 0.00 0.00 0.00 73 1014.6
20171117085440 40 90 2.0 6.0 0.00 0.00 0.00 73 1014.6
20171117084932 40 203 3.0 5.0 0.00 0.00 0.00 73 1014.6
20171117084427 39 203 2.0 5.0 0.00 0.00 0.00 74 1015.0
20171117083920 39 113 2.0 5.0 0.00 0.00 0.00 74 1015.0
20171117083414 39 180 3.0 6.0 0.00 0.00 0.00 74 1015.0
20171117082908 39 158 2.0 6.0 0.00 0.00 0.00 75 1015.4
20171117082404 39 135 2.0 8.0 0.00 0.00 0.00 75 1015.4
20171117081821 38 180 3.0 8.0 0.00 0.00 0.00 75 1015.4
20171117081313 38 113 2.0 3.0 0.00 0.00 0.00 75 1015.4
20171117080808 38 158 2.0 5.0 0.00 0.00 0.00 75 1015.4
20171117080303 38 113 2.0 5.0 0.00 0.00 0.00 75 1015.7
20171117075756 38 113 2.0 5.0 0.00 0.00 0.00 75 1015.7
20171117075251 38 113 2.0 5.0 0.00 0.00 0.00 75 1016.1
20171117074743 37 113 2.0 5.0 0.00 0.00 0.00 76 1016.1
20171117074239 37 135 1.0 8.0 0.00 0.00 0.00 76 1016.1
20171117073732 38 113 3.0 8.0 0.00 0.00 0.00 76 1015.7
20171117073226 37 158 2.0 5.0 0.00 0.00 0.00 76 1016.1
20171117072722 37 158 2.0 5.0 0.00 0.00 0.00 78 1016.1
20171117072214 37 90 2.0 5.0 0.00 0.00 0.00 78 1016.1
20171117071709 37 180 2.0 4.0 0.00 0.00 0.00 79 1016.1
20171117071201 36 45 1.0 4.0 0.00 0.00 0.00 79 1016.1
20171117070656 36 158 3.0 5.0 0.00 0.00 0.00 79 1016.4
20171117070132 36 113 2.0 5.0 0.00 0.00 0.00 79 1016.7
20171117065625 36 158 2.0 5.0 0.00 0.00 0.00 80 1016.7
20171117065121 36 135 2.0 4.0 0.00 0.00 0.00 80 1017.1
20171117064613 36 135 2.0 6.0 0.00 0.00 0.00 80 1017.4
20171117064109 36 113 3.0 6.0 0.00 0.00 0.00 80 1017.4
20171117063602 36 90 2.0 5.0 0.00 0.00 0.00 80 1017.4
20171117063057 36 113 3.0 4.0 0.00 0.00 0.00 80 1017.4
20171117062550 36 113 3.0 6.0 0.00 0.00 0.00 80 1017.4
20171117062042 36 180 3.0 6.0 0.00 0.00 0.00 80 1017.4
20171117061538 36 113 3.0 5.0 0.00 0.00 0.00 80 1017.8
20171117061031 36 135 2.0 5.0 0.00 0.00 0.00 80 1017.8
20171117060526 36 135 2.0 6.0 0.00 0.00 0.00 80 1017.8
20171117060002 36 135 2.0 6.0 0.00 0.00 0.00 80 1018.1
20171117055454 36 158 2.0 4.0 0.00 0.00 0.00 80 1018.1
20171117054951 36 113 2.0 4.0 0.00 0.00 0.00 80 1018.1
20171117054442 35 113 1.0 3.0 0.00 0.00 0.00 81 1018.1
20171117053938 35 225 0.0 3.0 0.00 0.00 0.00 81 1018.1
20171117053430 35 203 1.0 6.0 0.00 0.00 0.00 81 1018.1
20171117052926 35 158 2.0 6.0 0.00 0.00 0.00 81 1018.4
20171117052418 35 135 2.0 4.0 0.00 0.00 0.00 81 1018.1
20171117051914 35 225 2.0 5.0 0.00 0.00 0.00 81 1018.1
20171117051407 35 180 2.0 7.0 0.00 0.00 0.00 81 1018.1
20171117050900 35 113 4.0 7.0 0.00 0.00 0.00 81 1018.4
20171117050356 34 113 3.0 5.0 0.00 0.00 0.00 83 1018.4
20171117045850 33 113 2.0 4.0 0.00 0.00 0.00 83 1018.1
20171117045326 33 113 2.0 4.0 0.00 0.00 0.00 83 1018.1
20171117044745 33 113 1.0 3.0 0.00 0.00 0.00 83 1018.1
20171117044236 33 203 1.0 3.0 0.00 0.00 0.00 83 1018.1
20171117043732 33 68 0.0 4.0 0.00 0.00 0.00 83 1018.4
20171117043224 33 203 2.0 6.0 0.00 0.00 0.00 83 1018.1
20171117042719 33 158 2.0 6.0 0.00 0.00 0.00 83 1018.1